Погода в Исилькуле

Погода в Исилькуле : погода сейчас, прогноз погоды и архив. Всё, что Вы хотите узнать о погоде в Исилькуле!

Хотите узнать прогноз погоды в Исилькуле? Тогда Вам сюда: Погода в Исилькуле

Поиск расширенной информации на нашем сайте:

Другие новости

Новости СМИ2

Главная страница сайта

Новости сайта

03.07.2017

Напоминаем, что на нашем специализированном сайте Метеоцентр.Азия вы можете получить высокодетализированные автоматические прогнозы погоды по пунктам России, СНГ и мира в авиационном формате (включающие направление и скорость ветра, видимость, явления погоды, количество и форму облачности, нижнюю и верхнюю границу облачности).

Рекомендуем: Деньги в долг срочно дам деньги в долг.

Погода в Исилькуле - сегодня

Время (UTC), дата Ветер
(°,м/с) 
Видим.   Явления Облачность Т
(°С)
Тd
(°С)
f(%) Тe
(°С)
Pmin
(гПа)
dP
(гПа)
Po
(мм)
O2
(г/м3)
Тmin Tmax R s Состояние
почвы
18 16.05.18 040 (СВ) 10 км    ясно 
+0.2 -5.8 64 -1  1018.9  1.7  752  304           
21 16.05.18 060 (СВ) 10 км    ясно 
-2.6 -6.6 74 -2  1019.9  0.9  753  307           
00 17.05.18 260 (З) 4000 м  дымка  1/0 верхняя 
[Ci fib]
-3.1 -5 87 -3  1021.2  1.2  754  308           
03 17.05.18 270 (З) 20000 м    3/1 600 м верхняя 
[Cu hum|Ci fib]
+2 -6.7 52 +1  1021.1  0.2  754  302  -4.7        влажная 
06 17.05.18 320 (СЗ) 20000 м    6/6 600 м 
[Cu hum]
+5 -6.6 43 +4  1020.5  -0.4  754  299           
09 17.05.18 340 (С) 20000 м    8/0 верхняя 
[Ci fib]
+7.9 -6.6 35 +7  1019.3  -1.1  753  296           
12 17.05.18 260 (З) 20000 м    8/0 верхняя 
[Ci fib]
+9.2 -7.1 31 +9  1017.6  -1.5  752  294           
15 17.05.18 220 (ЮЗ) 20000 м    3/3 1000 м средняя 
[Cu hum|Ac trans]
+7.7 -5.8 38 +9  1016.2  -1.5  751  295    +9.7       
18 17.05.18 200 (Ю) 10 км    ясно 
+5.2 -3.5 53 +4  1014.9  -1.4  750  297           
21 17.05.18 230 (ЮЗ) 10 км    9/9 600 м 
[Sc]
+6.1 -3.7 49 +5  1012.4  -2.4  748  295           
00 18.05.18 240 (ЮЗ) 20000 м    10/8 600 м средняя 
[Sc|Ac As]
+6.5 -1.4 57 +5  1009.5  -2.8  746  294           
03 18.05.18 240 (ЮЗ) 20000 м    10/0 средняя 
[As op]
+9.8 +1.1 55 +8  1006.8  -2.4  744  289  +5.2        влажная 
15 18.05.18 360 (С) 6{14}  20000 м    ясно 
+3.7 -8.4 41 +1  1018.2  2.8  752  300    +15.2  0.0     
18 18.05.18 350 (С) 10 км    ясно 
+0.6 -7.5 55 -2  1021.4  754  304           
21 18.05.18 350 (С) 10 км    ясно 
-1.6 -7.2 66 -4  1023.4  1.8  756  307           
00 19.05.18 330 (СЗ) 20000 м    ясно 
-0.9 -7.6 60 -3  1025.7  2.3  757  307           
03 19.05.18 340 (С) 20000 м    ясно 
+2.5 -9.6 40 1027.4  1.9  759  304  -2.8        влажная 
06 19.05.18 310 (СЗ) 20000 м    ясно 
+7.1 -10.4 28 +6  1027.8  0.6  759  299           
09 19.05.18 320 (СЗ) 20000 м    3/0 верхняя 
[Ci fib]
+10.7 -11 21 +10  1027.2  -0.4  759  295           
12 19.05.18 250 (З) 2{12}  20000 м    6/0 верхняя 
[Ci fib]
+12.9 -11 18 +13  1026.1  -1  758  293           
15 19.05.18 230 (ЮЗ) 20000 м    6/0 верхняя 
[Ci fib]
+10.3 -9.4 24 +10  1025.6  -0.6  758  295    +13.2       
18 19.05.18 180 (Ю) 10 км    8/0 средняя, верхняя 
[Ac trans|Ci fib]
+7.2 -5.8 39 +7  1025.1  -0.7  757  298           
21 19.05.18 170 (Ю) 4000 м  слаб. ливневой дождь  10/10 600 м кучево-дожд. 
[Cb calv]
+5.6 -0.2 66 +5  1024.8  -0.3  757  299           
00 20.05.18 180 (Ю) 20000 м  {ливн. осадки}  10/4 600 м кучево-дожд., средняя 
[Cb calv|Ac As]
+6.8 -0.4 60 +6  1023  -1.6  756  297           
03 20.05.18 200 (Ю) 20000 м  {ливн. осадки}  10/3 600 м кучево-дожд., средняя 
[Cb calv|Ac As]
+10.6 +1.7 54 +9  1020.8  -2  754  292  +5.5      влажная 
Время (UTC), дата Ветер
(°,м/с) 
Видим.   Явления Облачность Т
(°С)
Тd
(°С)
f(%) Тe
(°С)
Pmin
(гПа)
dP
(гПа)
Po
(мм)
O2
(г/м3)
Тmin Tmax R s Состояние
почвы

Для получения пояснительной информации подведите курсор к названию столбца.

ПОГОДА в Исилькуле - архив

Всё, что Вы хотите узнать о погоде в Исилькуле - удобно и подробно!

Выберите нужную дату (начиная с 1 января 2015* года) и нажмите кнопку "Найти".
Будут отображены архивные сводки погоды по пункту Исилькуль, начиная с указанной даты.


Отображать данные в формате CSV (для использования в таблицах Excel)


Внимание! Наш архив погоды предназначен исключительно для личного некоммерческого использования в познавательных целях. Если Вам необходимы официальные справки о состоянии погоды (для производственных, юридических, коммерческих и т.п. целей), обращайтесь в органы Росгидромета.

*Примечание: данная дата относится к архиву по метеостанциям СССР (Россия, СНГ, Балтия).
Архив по метеостанциям Зарубежной Европы и Азии (кроме Китая) хранится 10 дней, по другим регионам земного шара (Китай, Африка, Америка, Австралия, Океания) - 1 день.

Исилькуль - район местоположения метеостанции


Название, широта, долгота, высота метеостанции:
Исилькуль 54.9°ш. 71.2°д. 125 м над ур. моря [Российская Федерация]

Дополнительная информация

В oтличие oт бoльшинства пoгoдных сайтoв мы публикуем пoдрoбную метеoинфoрмацию в детальнoм прoфессиoнальнoм фoрмате.

Характеристики температуры и влажнoсти вoздуха измеряются на высoте 2 м в тени вдали oт зданий и деревьев.
Скoрoсть ветра измеряется на высoте 10 м (на урoвне рoста челoвека скoрoсть ветра ниже в 1.5-2 раза). Если метеoстанция нахoдится в гoрoде или в лесу, тo скoрoсть ветра занижена на 2-4 м/с пo сравнению с oткрытым местoм. Скoрoсть ветра над акватoриями крупных рек и oзёр, а также на вершинах хoлмoв на 2-5 м/с выше, чем в oбычных услoвиях.
Атмoсфернoе давление в разных тoчках местнoсти мoжет значительнo oтличаться oт давления на метеoстанции, в зависимoсти oт услoвий рельефа (при пoдъёме на 10 м давление пoнижается примернo на 1 мм рт.ст.).